SL-14 DEB, 45297

Orbit data source: Space-Track

SL-14 DEB, 45297 is space debris in LEO originally from a launch on Thu, 15 Aug 1991 UTC launched from the Plesetsk Missile And Space Complex (PKMTR). Debris objects in space refer to the collection of defunct objects orbiting the Earth. Examples of debris include non-operational satellites, rocket bodies, and fragments generated from explosions, collisions, or faulty payload assembly.

Loading next visibility...
Identifier
45297, 1991-056AK
Orbit
LEO
Last TLE update
1 day ago
Origin
Manufacturer
Unknown
Mission
Spacecraft
Bus & Motor
Unknown
Mass
Unknown
Launch date (UTC)
1991-08-15 (34 years ago)
Launch vehicle
Unknown
Launch site
Plesetsk Missile And Space Complex (PKMTR)
Object type
Payload
Rocket body
Debris
Shape & HBR
Unknown
Radar Cross Section
Small (<0.1 m²)

Expand to show TLE details & history

TLE from 1 day ago
0 SL-14 DEB
1 45297U 91056AK  25127.98652926  .00006566  00000-0  16763-1 0  9999
2 45297  82.6045  99.3126 0090926 339.4420  20.3051 13.16644762249304
Epoch: 2025-05-07T23:40Z
Definitive object data (Epoch: 2025-05-07T23:40:36.128Z)
Latitude
-0.00009°
Longitude
-121.90145°
Altitude
1,135.834 km
Speed
7.316 km/s
True Right ascension
06h 37m 15s
True Declination
0° 00' 00"
Sunlit
Object was in daylight at TLE epoch
Visualization TLE readout
Latitude
55.93286°
Longitude
-111.80619°
Altitude
1,194.647 km
Speed
7.268 km/s
Apparent Right ascension
05h 02m 16s
Apparent Declination
15° 34' 18"
Sunlit
Object is in daylight
Visualization observer readout
Local Sidereal Time
15:06:43
Azimuth
328.079° NNW
Elevation
-28.335°
Doppler factor
1
Orbital elements
Apogee altitude
1,263.663 km
Perigee altitude
1,125.948 km
Semi-major axis
7,572.943 km
Eccentricity
0.0090926
Inclination
82.6045°
RAAN
99.3126°
Arg. of periapsis
339.442°
True anomaly
20.67056°
Mean anomaly
20.3051°
Eccentric anomaly
20.48744°
Mean motion
3.29341 °/min
BSTAR
0.016763
Orbital period
109.31 mins
Loading maneuver chart data...
Loading SW <> Apogee altitude chart data...
Loading historical data...
Loading historical data...
Loading historical data...
Loading historical data...
Loading historical data...
Loading historical data...
Loading historical data...

SL-14 DEB Visibility forecast

Observer location: undefined°, undefined°

Span
Click to sort rows by Start time (UTC) header in descending order
Start Az.
Max El. time (UTC)
Max El. Az.
Max El.
End time (UTC)
End Az.
13 mins2025-05-09 09:05:47.904Z7° NNE2025-05-09 09:11:47.904Z67.176° ENE35.201°2025-05-09 09:18:47.904Z145.253° SSE
12 mins2025-05-09 10:56:47.904Z329.37° NNW2025-05-09 11:01:47.904Z280.28° WNW29.188°2025-05-09 11:08:47.904Z213.247° SW
9 mins2025-05-09 21:24:47.904Z122.206° SE2025-05-09 21:28:47.904Z77.214° E23.183°2025-05-09 21:33:47.904Z32.455° NE
12 mins2025-05-09 23:12:47.904Z210.33° SW2025-05-09 23:17:47.904Z275.228° WNW38.936°2025-05-09 23:24:47.904Z358.127° N
|